[[{"header":{"parameterUnit":"m.s-1","parameterCategory":1,"la1":30.2991,"la2":30.254,"lo1":-89.0895,"lo2":-89.0444,"dy":0.0017,"dx":0.0017,"nx":28,"ny":28,"refTime":"2023-03-27T15:00:00:Z","depth":0,"parameterNumber":2,"parameterNumberName":"U-component_of_WINDS"},"data":[0,0,0,0,0,0,0,0,0,0,0,0,0,0,0,0,0,0,0,0,0,0,0,0,0,0,0,0,0,0,0,0,0,0,0,0,0,0,0,0,0,0,0,0,0,0,0,0,0,0,0,0,0,0,0,0,0,0,-2.6707,-2.6707,0,-2.6669,-2.6668,-2.6668,-2.6589,-2.6588,-2.6586,-2.6585,-2.6546,-2.6547,-2.6547,0,0,0,0,0,0,0,0,0,0,0,0,0,-2.6715,-2.6715,-2.6707,-2.6707,-2.6706,-2.6669,-2.6668,-2.6668,-2.6589,-2.6588,-2.6586,-2.6584,-2.6546,-2.6547,-2.6547,0,0,0,0,0,0,0,0,0,0,0,0,0,-2.6698,-2.6715,-2.6707,-2.6663,-2.6658,-2.6669,-2.6668,-2.6668,-2.659,-2.6588,-2.6585,-2.6583,-2.6546,-2.6547,-2.6547,-2.6599,0,0,-2.6549,-2.655,0,0,0,0,0,0,0,0,-2.6699,-2.6698,-2.667,-2.6666,-2.6661,-2.6631,-2.6657,-2.6645,-2.659,-2.6616,-2.6585,-2.6582,-2.6577,-2.6575,-2.6573,-2.6597,-2.6595,-2.6549,-2.655,-2.655,-2.655,0,0,0,0,0,0,0,-2.67,-2.6699,-2.6692,-2.667,-2.6664,-2.6645,-2.664,-2.6654,-2.661,-2.6614,-2.6608,-2.6604,-2.6574,-2.6572,-2.6571,-2.6595,-2.6549,-2.655,-2.655,-2.6551,-2.6659,-2.6662,0,0,0,0,0,0,-2.6708,-2.67,-2.6693,-2.6691,-2.6674,-2.6647,-2.6641,-2.6643,-2.661,-2.6602,-2.6606,-2.6601,-2.6572,-2.657,-2.657,-2.6627,-2.655,-2.6551,-2.6551,-2.6657,-2.666,-2.6663,0,0,0,0,0,0,-2.6708,-2.6708,-2.6695,-2.6694,-2.6691,-2.6649,-2.6652,-2.6644,-2.6642,-2.6604,-2.6596,-2.6613,-2.657,-2.6569,-2.6592,-2.6624,-2.6551,-2.6552,-2.6654,-2.6658,-2.6661,-2.6742,0,0,0,0,0,0,-2.6709,-2.6708,-2.6727,-2.6695,-2.6691,-2.6718,-2.6654,-2.6645,-2.6643,-2.6636,-2.6608,-2.6601,-2.6568,-2.6591,-2.6593,-2.6624,-2.6552,-2.6651,-2.6656,-2.666,-2.6736,-2.6748,-2.6758,0,0,0,0,0,-2.6709,-2.6751,-2.6728,-2.6728,-2.6713,-2.672,-2.6717,-2.6678,-2.6646,-2.6665,-2.6641,-2.6602,-2.6621,-2.6594,-2.6595,-2.6627,-2.6648,-2.6654,-2.666,-2.6731,-2.6746,-2.6758,0,0,0,0,0,0,-2.6788,-2.6746,-2.672,-2.6753,-2.6741,-2.6706,-2.6728,-2.6695,-2.6691,-2.6684,-2.6637,-2.6631,-2.6661,-2.6647,-2.6618,-2.6675,-2.6629,-2.6635,-2.6683,-2.6696,-2.6707,-2.6709,-2.6553,0,0,0,0,0,-2.681,-2.6818,-2.6781,-2.6814,-2.6809,-2.677,-2.6771,-2.6742,-2.6727,-2.6722,-2.6699,-2.6687,-2.669,-2.6692,-2.6693,-2.6735,-2.6727,-2.6757,-2.6768,-2.6777,-2.6782,-2.6803,-2.6815,-2.6681,-2.6681,-2.6681,0,0,-2.6854,-2.6832,-2.684,-2.6829,-2.6816,-2.6825,-2.6766,-2.6778,-2.6785,-2.6724,-2.6744,-2.6727,-2.671,-2.6743,-2.6756,-2.6732,-2.6818,-2.6784,-2.6792,-2.6792,-2.681,-2.6823,-2.6834,-2.6685,-2.6684,-2.6683,0,0,-2.6938,-2.6923,-2.6948,-2.6936,-2.6917,-2.6891,-2.6898,-2.6869,-2.6855,-2.6875,-2.6829,-2.6837,-2.6843,-2.6833,-2.6828,-2.6911,-2.6875,-2.6913,-2.6969,-2.699,-2.7,-2.7009,-2.7038,-2.7048,-2.6919,-2.6919,-2.6919,0,-2.6995,-2.7007,-2.6966,-2.6981,-2.6978,-2.6923,-2.6948,-2.6939,-2.6922,-2.6921,-2.6894,-2.6901,-2.6886,-2.6915,-2.6935,-2.6934,-2.6939,-2.6914,-2.7002,-2.7011,-2.7019,-2.7045,-2.7056,-2.6923,-2.6923,-2.6922,-2.6922,0,-2.7078,-2.7087,-2.711,-2.7094,-2.7093,-2.7114,-2.7076,-2.7081,-2.7053,-2.7031,-2.7052,-2.7032,-2.7027,-2.7033,-2.7006,-2.7058,-2.7043,-2.7011,-2.6962,-2.7037,-2.7061,-2.7071,-2.693,-2.6928,-2.6927,-2.6926,0,0,-2.7209,-2.717,-2.7179,-2.7171,-2.7147,-2.7153,-2.7172,-2.7168,-2.7172,-2.7163,-2.7177,-2.7185,-2.7154,-2.7149,-2.7121,-2.7139,-2.7205,-2.7103,-2.7102,-2.7121,-2.726,-2.7284,-2.7296,-2.7182,-2.7184,-2.7185,-2.7261,0,-2.7286,-2.7315,-2.7279,-2.7315,-2.7323,-2.7272,-2.7289,-2.7276,-2.7256,-2.726,-2.7238,-2.7244,-2.7203,-2.72,-2.7216,-2.7193,-2.7231,-2.7188,-2.7194,-2.7194,-2.7197,-2.7309,-2.7334,-2.7406,-2.727,-2.7272,-2.7273,0,-2.738,-2.7374,-2.7412,-2.7385,-2.7387,-2.7402,-2.7395,-2.74,-2.7385,-2.7369,-2.7365,-2.7331,-2.7348,-2.7304,-2.7326,-2.7297,-2.7298,-2.7287,-2.7289,-2.7286,-2.7237,-2.7307,-2.7428,-2.7439,-2.7288,-2.7287,-2.7285,0,-2.747,-2.7472,-2.7494,-2.7489,-2.7459,-2.7471,-2.7459,-2.7442,-2.7442,-2.7437,-2.7436,-2.7433,-2.7431,-2.743,-2.7397,-2.7367,-2.7423,-2.7376,-2.741,-2.7411,-2.7422,-2.7421,-2.7543,-2.7427,-2.7426,-2.7426,-2.7426,0,-2.7559,-2.7583,-2.7534,-2.7548,-2.7574,-2.7533,-2.7561,-2.7544,-2.7529,-2.7539,-2.7496,-2.7506,-2.7462,-2.7468,-2.7443,-2.7465,-2.7465,-2.7452,-2.7445,-2.7455,-2.7456,-2.7453,-2.7446,-2.7429,-2.7428,-2.7428,-2.7427,0,-2.7662,-2.7631,-2.7651,-2.7622,-2.7615,-2.7636,-2.761,-2.7622,-2.76,-2.7613,-2.7614,-2.7579,-2.7584,-2.7551,-2.755,-2.7533,-2.7567,-2.7552,-2.7571,-2.7566,-2.7601,-2.7597,-2.7723,-2.7737,-2.7614,-2.7615,-2.7616,0,-2.772,-2.7738,-2.771,-2.7713,-2.7704,-2.771,-2.7709,-2.7671,-2.7672,-2.7657,-2.767,-2.7672,-2.767,-2.768,-2.7655,-2.7654,-2.7637,-2.7682,-2.7637,-2.7646,-2.7636,-2.7634,-2.7635,-2.769,-2.7692,-2.7693,-2.7694,0,-2.7826,-2.7809,-2.781,-2.7806,-2.7806,-2.7801,-2.7793,-2.7799,-2.7757,-2.7761,-2.7765,-2.7764,-2.7763,-2.7764,-2.7759,-2.7747,-2.7714,-2.7709,-2.7716,-2.7725,-2.7735,-2.7729,-2.7594,-2.7705,-2.7704,-2.7703,-2.7703,-2.7702,-2.7906,-2.7919,-2.7902,-2.7904,-2.7895,-2.7888,-2.7898,-2.7877,-2.788,-2.7875,-2.7853,-2.7861,-2.7846,-2.7835,-2.7827,-2.7833,-2.7811,-2.7823,-2.7825,-2.7828,-2.7834,-2.7737,-2.7832,-2.7832,-2.7831,-2.7831,-2.7831,0,-2.8008,-2.7995,-2.7997,-2.7987,-2.799,-2.7959,-2.7949,-2.7953,-2.796,-2.7949,-2.7949,-2.7954,-2.7955,-2.7931,-2.793,-2.7939,-2.7924,-2.794,-2.7938,-2.7935,-2.7854,-2.7846,-2.7952,-2.7952,-2.7952,-2.7952,-2.7952,-2.7952,-2.8061,-2.8081,-2.8063,-2.8078,-2.8065,-2.8072,-2.8068,-2.8063,-2.8054,-2.8061,-2.8062,-2.8046,-2.803,-2.8027,-2.8028,-2.802,-2.8021,-2.8042,-2.803,-2.7953,-2.7941,-2.793,-2.7923,-2.8043,-2.8043,-2.8111,-2.8111,-2.8112]},{"header":{"parameterUnit":"m.s-1","parameterCategory":1,"la1":30.2991,"la2":30.254,"lo1":-89.0895,"lo2":-89.0444,"dy":0.0017,"dx":0.0017,"nx":28,"ny":28,"refTime":"2023-03-27T15:00:00:Z","depth":0,"parameterNumber":3,"parameterNumberName":"V-component_of_WINDS"},"data":[0,0,0,0,0,0,0,0,0,0,0,0,0,0,0,0,0,0,0,0,0,0,0,0,0,0,0,0,0,0,0,0,0,0,0,0,0,0,0,0,0,0,0,0,0,0,0,0,0,0,0,0,0,0,0,0,0,0,1.8727,1.8728,0,1.8756,1.8757,1.8757,1.8741,1.874,1.8739,1.8738,1.8767,1.8768,1.877,0,0,0,0,0,0,0,0,0,0,0,0,0,1.8657,1.8659,1.8727,1.8728,1.8728,1.8756,1.8757,1.8757,1.8741,1.874,1.8739,1.8738,1.8766,1.8768,1.877,0,0,0,0,0,0,0,0,0,0,0,0,0,1.8687,1.8659,1.8727,1.8723,1.8723,1.8756,1.8757,1.8757,1.8741,1.874,1.8739,1.8738,1.8766,1.8768,1.877,1.8808,0,0,1.8777,1.8778,0,0,0,0,0,0,0,0,1.8685,1.869,1.8724,1.8724,1.8724,1.8744,1.8742,1.8774,1.8742,1.8734,1.8738,1.8737,1.876,1.8763,1.8771,1.8809,1.8811,1.8777,1.8779,1.8779,1.878,0,0,0,0,0,0,0,1.8683,1.8688,1.8739,1.8724,1.8724,1.872,1.8723,1.8748,1.8754,1.8735,1.8734,1.8738,1.876,1.8769,1.8771,1.8811,1.8777,1.8779,1.878,1.8781,1.8884,1.8885,0,0,0,0,0,0,1.8682,1.8687,1.8738,1.874,1.8701,1.8722,1.8726,1.8739,1.8753,1.8754,1.8739,1.8737,1.8765,1.8769,1.8772,1.8819,1.8779,1.8782,1.8783,1.8883,1.8884,1.8886,0,0,0,0,0,0,1.868,1.8686,1.8737,1.8713,1.8719,1.8725,1.874,1.874,1.8749,1.8756,1.8757,1.8747,1.8764,1.8769,1.88,1.882,1.8783,1.8785,1.8881,1.8883,1.8885,1.8912,0,0,0,0,0,0,1.8678,1.8686,1.8701,1.8713,1.872,1.8764,1.8741,1.8741,1.8753,1.8751,1.8764,1.8765,1.8764,1.8796,1.8802,1.8822,1.8786,1.8879,1.8882,1.8884,1.891,1.8915,1.892,0,0,0,0,0,1.8676,1.8706,1.8701,1.8708,1.8739,1.8765,1.8769,1.8768,1.8754,1.8769,1.8774,1.8764,1.8816,1.88,1.8806,1.8827,1.8878,1.8881,1.8884,1.8907,1.8914,1.892,0,0,0,0,0,0,1.8695,1.8708,1.8703,1.8738,1.8751,1.8763,1.8781,1.8775,1.8791,1.8788,1.8786,1.8789,1.8821,1.8827,1.8808,1.8865,1.8845,1.8849,1.8861,1.8867,1.8872,1.887,1.8788,0,0,0,0,0,1.8703,1.8724,1.8734,1.8765,1.8771,1.8775,1.8787,1.8785,1.8798,1.8803,1.881,1.8822,1.8842,1.8854,1.8872,1.891,1.8913,1.8928,1.8933,1.8937,1.8941,1.8963,1.897,1.8896,1.8896,1.8896,0,0,1.8721,1.8731,1.8744,1.8769,1.8778,1.88,1.878,1.8803,1.882,1.8806,1.8836,1.8842,1.8856,1.8891,1.8906,1.8896,1.8962,1.8941,1.8944,1.8946,1.8967,1.8974,1.898,1.8898,1.8898,1.8897,0,0,1.8764,1.8773,1.8801,1.8811,1.8826,1.8829,1.8835,1.8848,1.8852,1.8882,1.8873,1.8892,1.8924,1.8935,1.8945,1.8994,1.8986,1.8999,1.9026,1.9048,1.9053,1.9059,1.9078,1.9084,1.9003,1.9003,1.9004,0,1.8784,1.8817,1.8815,1.884,1.8852,1.8841,1.8869,1.8879,1.8899,1.8908,1.8896,1.8938,1.8947,1.8985,1.8997,1.9004,1.9013,1.8999,1.9053,1.9058,1.9063,1.9081,1.9088,1.9005,1.9005,1.9005,1.9005,0,1.8842,1.8865,1.8885,1.8906,1.8919,1.8946,1.8948,1.8962,1.8959,1.8963,1.8994,1.9004,1.9025,1.9033,1.903,1.9071,1.9065,1.9053,1.9033,1.9072,1.9089,1.9096,1.9008,1.9007,1.9006,1.9006,0,0,1.8899,1.8919,1.8926,1.8936,1.8953,1.897,1.8996,1.9017,1.903,1.9044,1.9066,1.9095,1.9085,1.9096,1.9093,1.9112,1.9152,1.9098,1.9099,1.9109,1.92,1.9211,1.9219,1.9147,1.9148,1.9149,1.92,0,1.8945,1.8991,1.899,1.9033,1.9055,1.9046,1.9068,1.9081,1.9085,1.9104,1.9108,1.9129,1.9113,1.912,1.9138,1.9144,1.9171,1.914,1.9168,1.9169,1.9167,1.9227,1.9238,1.9285,1.9206,1.9207,1.9208,0,1.9005,1.9022,1.9068,1.9082,1.9091,1.9112,1.9132,1.915,1.9164,1.9165,1.9179,1.9174,1.92,1.9178,1.9216,1.9195,1.9206,1.9211,1.9212,1.9216,1.9192,1.9234,1.93,1.9308,1.9218,1.9218,1.9217,0,1.9044,1.9079,1.9111,1.912,1.9136,1.9152,1.9159,1.9172,1.9185,1.9202,1.9211,1.923,1.9241,1.9257,1.9257,1.9241,1.9296,1.9273,1.9299,1.9299,1.9312,1.9311,1.9383,1.9316,1.9316,1.9316,1.9316,0,1.9097,1.9126,1.9129,1.9149,1.9181,1.918,1.9212,1.9218,1.9229,1.9251,1.9242,1.9262,1.9261,1.9282,1.9282,1.9314,1.9318,1.9321,1.9321,1.9323,1.9323,1.9332,1.9329,1.9318,1.9317,1.9317,1.9317,0,1.9147,1.9151,1.9186,1.9199,1.9203,1.9226,1.9238,1.9257,1.926,1.9287,1.9293,1.9299,1.9323,1.9324,1.9351,1.9352,1.9391,1.9386,1.9387,1.9386,1.9413,1.9411,1.9493,1.9505,1.9429,1.943,1.943,0,1.9182,1.9204,1.922,1.9234,1.9243,1.9265,1.9279,1.9278,1.9293,1.9311,1.9328,1.9351,1.937,1.9408,1.9414,1.9435,1.9432,1.9459,1.9435,1.9437,1.9435,1.9435,1.9438,1.9465,1.9466,1.9466,1.9467,0,1.9243,1.9244,1.9264,1.9286,1.9303,1.9319,1.9334,1.9346,1.9347,1.9364,1.9389,1.9403,1.9431,1.9454,1.9475,1.9482,1.9476,1.9474,1.9482,1.9485,1.9485,1.9487,1.9402,1.9473,1.9472,1.9472,1.9471,1.9471,1.9288,1.9308,1.9323,1.9346,1.9358,1.9373,1.9392,1.9398,1.9419,1.9442,1.944,1.9468,1.9482,1.9509,1.9518,1.954,1.9531,1.9541,1.9544,1.9547,1.9551,1.948,1.9543,1.9543,1.9543,1.9543,1.9543,0,1.9351,1.9361,1.9382,1.9404,1.9423,1.9414,1.9431,1.9447,1.9472,1.9485,1.9504,1.9533,1.9556,1.9564,1.9586,1.9602,1.9599,1.9608,1.9608,1.961,1.9556,1.9549,1.961,1.961,1.961,1.961,1.961,1.961,1.9387,1.942,1.9423,1.9463,1.9471,1.9499,1.951,1.9523,1.9535,1.9567,1.9587,1.9592,1.9604,1.9627,1.9648,1.9649,1.9659,1.9669,1.967,1.962,1.9614,1.9607,1.96,1.9671,1.9671,1.9722,1.9723,1.9723]}]]